Showing default

HAWK-2C, 47502

Orbit data source: Space-Track

HAWK-2C, 47502 is a payload satellite owned by HawkEye 360 (US) in SSO that was launched on Sun, 24 Jan 2021 UTC via an FALCON 9 launch vehicle from the Air Force Eastern Test Range (AFETR). Payload-class satellites include a variety of spacecraft equipped with specific instruments for various scientific and technological missions. These include communications satellites like Starlink; space stations such as the ISS; scientific satellites like the Hubble; Earth observation satellites from companies like Planet Labs, Umbra, and HawkEye 360; GPS; miniature CubeSats for education and research; and military/defense satellites.

Loading next visibility...
Identifier
47502, 2021-006CT
Orbit
SSO
Country
Flag of USUS
Related business
Manufacturer
UTIAS-SFL
Mission
Operational Commercial Sigint
Bus & Motor
DEFIANT, Unknown motor
Mass
31 kg wet, 30 kg dry
Launch date (UTC)
2021-01-24 (5 years ago)
Launch vehicle
FALCON 9
Launch site
Air Force Eastern Test Range (AFETR)
Object type
Payload
Rocket body
Debris
Shape & HBR
Box + 2 Pan, 1.0 m
Radar Cross Section
0.348 m², Medium (>0.1 m² and < 1m²)

Expand to show TLE details & history
Last TLE update: 1 day ago

TLE from 1 day ago
0 HAWK-2C
1 47502U 21006CT  26126.08882981  .00006675  00000-0  20410-3 0  9992
2 47502  97.2307 171.2472 0006606   7.9205 352.2141 15.34165601293041
Epoch: 2026-05-06T02:07Z
TLE epoch observation values (Epoch: 2026-05-06T02:07:54.895Z)
Latitude
-0.00007°
Longitude
-84.68586°
Altitude
462.036 km
Speed
7.638 km/s
True Right ascension
11h 24m 59s
True Declination
0° 00' 00"
Sunlit
Object was in full shadow at epoch
Visualization orbit readout
Latitude
Unknown
Longitude
Unknown
Altitude
Unknown
Speed
Unknown
Apparent Right ascension
Unknown
Apparent Declination
Unknown
Sunlit
N/A
Visualization observer readout
Local Sidereal Time
15:01:28
Azimuth
Unknown
Elevation
Unknown
Doppler factor
Unknown
Orbital elements
Apogee altitude
464.857 km
Perigee altitude
455.822 km
Semi-major axis
6,838.477 km
Eccentricity
0.00066
Inclination
97.2307°
RAAN
171.2472°
Arg. of periapsis
7.9205°
True anomaly
352.20384°
Mean anomaly
352.2141°
Eccentric anomaly
352.20897°
Mean motion
3.83799 °/min
Orbital period
93.8 mins
BSTAR
0.0002041
Loading maneuver chart data...
Computing Atmospheric mass density...

Documentation

Showing up to 5 results
|